Weather History for KMUI - June, 2013

Change the Weather History Date:

Wednesday, June 12, 2013

  Actual Average Record
Temperature  
Mean Temperature 73 °F -  
Max Temperature 80 °F 75 °F 89 °F (2007)
Min Temperature 66 °F 61 °F 57 °F (2006)
Cooling Degree Days 8    
Growing Degree Days 23 (Base 50)    
Moisture  
Dew Point 61 °F    
Average Humidity 67    
Maximum Humidity 95    
Minimum Humidity 48    
Precipitation  
Precipitation 0.00 in - - ()
Sea Level Pressure  
Sea Level Pressure 29.84 in    
Wind  
Wind Speed 5 mph (WNW)    
Max Wind Speed 9 mph    
Max Gust Speed 17 mph    
Visibility 10 miles    
Events Rain    
Averages and records for this station are not official NWS values.
T = Trace of Precipitation, MM = Missing Value Source: NWS Daily Summary

Daily Weather History Graph

Daily Weather History Graph

Search for Another Location

Airport or City:

Trip Planner

Search our weather history database for the weather conditions in past years. The results will help you decide how hot, cold, wet, or windy it might be!

Date:

Astronomy

Jun. 12, 2013 Rise Set
Actual Time 5:35 AM EDT 8:37 PM EDT
Civil Twilight 5:02 AM EDT 9:10 PM EDT
Nautical Twilight 4:20 AM EDT 9:52 PM EDT
Astronomical Twilight 3:31 AM EDT 10:41 PM EDT
Moon 9:13 AM EDT (6/12) 11:11 PM EDT (6/12)
Length of Visible Light 16h 07m
Length of Day
15h 01m
Waxing Crescent, 14% of the Moon is Illuminated
Jun 12
Waxing Crescent
Jun 16
First Quarter
Jun 23
Full
Jun 30
Last Quarter
Jul 8
New

Hourly Weather History & Observations

Time (EDT) Temp. Heat Index Dew Point Humidity Pressure Visibility Wind Dir Wind Speed Gust Speed Precip Events Conditions
12:58 AM 70.0 °F - 59.2 °F 68% 29.81 in 10.0 mi West 9.2 mph - N/A   Clear
1:58 AM 69.8 °F - 59.7 °F 70% 29.82 in 10.0 mi West 6.9 mph 17.3 mph N/A   Clear
2:58 AM 68.5 °F - 60.1 °F 74% 29.83 in 10.0 mi West 4.6 mph - N/A   Clear
3:58 AM 68.7 °F - 60.3 °F 74% 29.82 in 10.0 mi West 6.9 mph - N/A   Clear
4:58 AM 66.7 °F - 60.4 °F 80% 29.83 in 10.0 mi WSW 5.8 mph - N/A   Clear
5:58 AM 67.8 °F - 60.1 °F 76% 29.85 in 10.0 mi WSW 6.9 mph - N/A   Clear
6:58 AM 68.2 °F - 60.8 °F 77% 29.86 in 10.0 mi WSW 5.8 mph - N/A   Clear
7:58 AM 70.5 °F - 60.3 °F 70% 29.87 in 10.0 mi West 5.8 mph - N/A   Clear
8:58 AM 71.2 °F - 58.5 °F 64% 29.87 in 10.0 mi WNW 6.9 mph - N/A   Mostly Cloudy
9:58 AM 73.6 °F - 58.3 °F 59% 29.86 in 10.0 mi WNW 3.5 mph - N/A   Partly Cloudy
10:58 AM 75.9 °F - 58.8 °F 55% 29.86 in 10.0 mi Variable 4.6 mph - N/A   Clear
11:58 AM 77.2 °F - 58.8 °F 53% 29.87 in 10.0 mi Variable 5.8 mph - N/A   Clear
12:58 PM 77.9 °F - 59.0 °F 52% 29.87 in 10.0 mi West 9.2 mph - N/A   Scattered Clouds
1:58 PM 79.9 °F - 58.6 °F 48% 29.86 in 10.0 mi Variable 3.5 mph - N/A   Partly Cloudy
2:58 PM 80.1 °F 80.7 °F 58.8 °F 48% 29.84 in 10.0 mi Variable 4.6 mph - N/A   Partly Cloudy
3:58 PM 80.4 °F 81.1 °F 59.7 °F 49% 29.83 in 10.0 mi West 6.9 mph - N/A   Clear
4:58 PM 80.1 °F 81.1 °F 60.8 °F 52% 29.83 in 10.0 mi Variable 2.3 mph - N/A   Partly Cloudy
5:58 PM 79.7 °F - 63.1 °F 57% 29.82 in 10.0 mi NNE 4.6 mph - N/A   Mostly Cloudy
6:12 PM 78.8 °F - 62.6 °F 57% 29.81 in 10.0 mi NE 3.5 mph - N/A Rain Light Rain
6:20 PM 78.8 °F - 62.6 °F 57% 29.81 in 10.0 mi Calm Calm - N/A   Scattered Clouds
6:58 PM 76.6 °F - 65.5 °F 68% 29.82 in 10.0 mi Calm Calm - 0.00 in   Scattered Clouds
7:58 PM 73.2 °F - 65.1 °F 76% 29.84 in 10.0 mi Calm Calm - N/A   Clear
8:19 PM 73.4 °F - 64.4 °F 73% 29.83 in 10.0 mi Calm Calm - N/A Rain Light Rain
8:31 PM 71.6 °F - 64.4 °F 78% 29.83 in 10.0 mi NNE 3.5 mph - N/A   Partly Cloudy
8:58 PM 71.2 °F - 63.7 °F 77% 29.83 in 10.0 mi Calm Calm - 0.00 in   Partly Cloudy
9:58 PM 68.9 °F - 64.4 °F 86% 29.84 in 10.0 mi North 1.2 mph - N/A   Mostly Cloudy
10:58 PM 66.4 °F - 64.2 °F 93% 29.86 in 10.0 mi Calm Calm - N/A   Scattered Clouds
11:58 PM 66.0 °F - 64.6 °F 95% 29.84 in 10.0 mi Calm Calm - N/A   Scattered Clouds